Location: Unspecified
(0.0000°N, 0.0000°E)
Time: 12:40:07
(UTC+00:00)

ISS - Visible Passes

Search period start: 16 December 2017 00:00
Search period end: 26 December 2017 00:00
Orbit: 402 x 406 km, 51.6° (Epoch: 16 December)

Date Brightness Start Highest point End Pass type
(mag) Time Alt. Az. Time Alt. Az. Time Alt. Az.
18 Dec -4.0 19:15:50 10° NNW 19:19:05 82° NE 19:19:48 51° SE visible
19 Dec -2.8 18:24:04 10° N 18:26:52 26° NE 18:29:41 10° ESE visible
20 Dec -1.1 19:08:16 10° WNW 19:10:53 22° SW 19:13:32 10° S visible
23 Dec -1.1 04:57:38 10° S 05:00:18 23° SE 05:02:58 10° ENE visible
25 Dec -4.0 04:48:45 10° SW 04:52:00 79° NW 04:55:15 10° NNE visible
